Starlink 30767

operational
NORAD ID: 58126 Int'l Des: 2023-162 Owner: SPXS Country: US Constellation: starlink
LEOCIRCULAR

About Starlink 30767

Description loading...

Live Position

Loading 3D Globe...

Upcoming Passes

Altitude History

Altitude vs Time

uPlot chart will show altitude changes over time

Two-Line Element Set

1 58126U 23162J 25258.60240729 .00001924 00000-0 15751-3 0 9996
2 58126 43.0055 4.3518 0001964 285.5316 74.5310 15.02536782105962
Epoch: Sep 15, 2025 • Age: 10 hours

Current Status

Altitude 560.5 km
Velocity 7.59 km/s
Sub-Earth Point 30.90°N, 42.89°E
Launch Date Oct 22, 2023
Age 1.9 years
Type internet

Technical Details

Classification Payload
Mass 730.00 kg
Dry Mass 700.00 kg
Total Mass 730.00 kg
Length 0.30 m
Diameter 4.10 m
Span 29.00 m
Shape Box + pan
Manufacturer SPXS
Bus Type Starlink V2M
Phase Status In Orbit
Owner/State SPXS/US

Large Constellations

Loading constellations...